FW9243 Weather Reports


time (UTC)temp
C
wind
direction
speed
KPH
gust
KPH
rain 1hr
cm
rain 24hr
cm
rain mn
cm
humidity
%
barometer
mb
20260506002402 10 223 1.6 4.8 0.00 0.28 0.00 92 1016.7
20260506001902 10 45 1.6 4.8 0.00 0.28 0.00 92 1016.6
20260506001628 10 157 3.2 4.8 0.00 0.28 0.00 92 1016.6
20260506001540 10 0 1.6 3.2 0.00 0.08 0.00 100 1017.0
20260506000902 10 128 3.2 3.2 0.00 0.28 0.00 92 1016.7
20260506000401 10 152 1.6 3.2 0.00 0.28 0.00 92 1016.7
20260506000038 10 221 0.0 1.6 0.00 0.08 0.00 100 1017.1
20260505235901 10 250 1.6 3.2 0.00 0.28 0.00 92 1016.7
20260505235402 10 117 0.0 3.2 0.00 0.28 0.00 92 1016.7
20260505235131 10 324 0.0 3.2 0.00 0.28 0.00 92 1016.8
20260505234538 10 178 1.6 4.8 0.00 0.08 0.00 100 1017.0
20260505234402 10 165 3.2 4.8 0.00 0.28 0.00 92 1016.6
20260505233903 10 127 3.2 4.8 0.00 0.28 0.00 91 1016.7
20260505233626 10 89 1.6 3.2 0.00 0.28 0.00 91 1016.7
20260505233129 10 89 0.0 3.2 0.00 0.28 0.00 91 1016.8
20260505233035 10 0.0 1.6 0.00 0.08 0.00 100 1017.1
20260505232402 10 303 0.0 3.2 0.00 0.28 0.00 91 1016.7
20260505231901 10 178 1.6 3.2 0.00 0.28 0.00 91 1016.7
20260505231536 10 232 0.0 1.6 0.00 0.08 0.00 100 1017.1
20260505231402 10 234 1.6 3.2 0.00 0.28 0.00 91 1016.7
20260505230902 10 89 0.0 1.6 0.00 0.28 0.00 91 1016.8
20260505230402 10 89 0.0 1.6 0.00 0.28 0.00 91 1016.7
20260505230045 10 0 1.6 1.6 0.00 0.08 0.00 100 1017.0
20260505225902 10 45 0.0 3.2 0.00 0.28 0.00 91 1016.8
20260505225402 10 241 0.0 3.2 0.00 0.28 0.00 91 1016.8
20260505224902 10 127 1.6 3.2 0.00 0.28 0.00 90 1016.9
20260505224537 10 0 0.0 1.6 0.00 0.08 0.00 100 1017.3
20260505224402 10 135 0.0 1.6 0.00 0.28 0.00 90 1016.9
20260505224116 11 135 0.0 1.6 0.00 0.28 0.00 90 1016.9
20260505224102 11 135 0.0 1.6 0.00 0.28 0.00 90 1016.9
20260505223041 10 0 0.0 1.6 0.00 0.08 0.00 100 1017.3
20260505222902 11 165 0.0 4.8 0.00 0.28 0.00 90 1017.0
20260505222401 11 135 0.0 4.8 0.00 0.28 0.00 90 1016.9
20260505221902 11 161 1.6 3.2 0.00 0.28 0.00 89 1016.9
20260505221539 11 0 0.0 1.6 0.00 0.08 0.00 100 1017.2
20260505221402 11 206 0.0 1.6 0.00 0.28 0.00 88 1016.9
20260505220902 11 135 0.0 1.6 0.00 0.28 0.00 88 1016.9
20260505220402 11 178 0.0 3.2 0.00 0.28 0.00 88 1016.9
20260505220043 11 0.0 1.6 0.00 0.08 0.00 100 1017.2
20260505215902 11 206 1.6 3.2 0.00 0.28 0.28 88 1016.9
20260505215402 11 152 1.6 1.6 0.00 0.28 0.28 88 1016.9
20260505214901 11 135 0.0 1.6 0.00 0.28 0.28 88 1016.9
20260505214537 11 0 0.0 1.6 0.00 0.08 0.08 100 1017.2
20260505214402 11 135 0.0 1.6 0.00 0.28 0.28 88 1016.8
20260505214131 11 178 0.0 3.2 0.00 0.28 0.28 88 1016.8
20260505213402 11 161 1.6 3.2 0.00 0.28 0.28 88 1016.8
20260505213041 11 149 1.6 1.6 0.00 0.08 0.08 100 1017.3
20260505212902 11 157 1.6 1.6 0.00 0.28 0.28 87 1016.9
20260505212402 11 135 0.0 1.6 0.00 0.28 0.28 87 1016.9
20260505211902 11 135 0.0 1.6 0.00 0.28 0.28 87 1016.9
20260505211544 11 0 0.0 0.0 0.00 0.08 0.08 100 1017.2
20260505211402 11 45 0.0 1.6 0.00 0.28 0.28 87 1016.9
20260505210903 11 117 0.0 1.6 0.00 0.28 0.28 86 1016.9
20260505210401 11 117 0.0 1.6 0.00 0.28 0.28 86 1016.9
20260505210039 11 0 0.0 0.0 0.00 0.08 0.08 100 1017.2
20260505205902 12 135 0.0 1.6 0.00 0.28 0.28 86 1016.9
20260505205402 12 89 0.0 1.6 0.00 0.28 0.28 86 1016.9
20260505204902 12 117 0.0 1.6 0.00 0.28 0.28 86 1016.8
20260505204620 12 135 0.0 1.6 0.00 0.28 0.28 86 1016.9
20260505204539 12 93 0.0 1.6 0.00 0.08 0.08 100 1017.2
20260505203902 12 135 0.0 1.6 0.00 0.28 0.28 86 1016.9
20260505203403 12 161 1.6 1.6 0.00 0.28 0.28 86 1016.9
20260505203044 12 162 1.6 1.6 0.00 0.08 0.08 100 1017.2
20260505202901 12 161 1.6 1.6 0.00 0.28 0.28 85 1016.9
20260505202402 12 89 0.0 1.6 0.00 0.28 0.28 85 1016.8
20260505201902 12 269 1.6 1.6 0.00 0.28 0.28 85 1016.7
20260505201625 12 197 0.0 1.6 0.00 0.28 0.28 85 1016.7
20260505201545 12 178 0.0 1.6 0.00 0.08 0.08 100 1017.0
20260505200901 12 223 1.6 3.2 0.00 0.28 0.28 85 1016.6
20260505200402 12 152 1.6 3.2 0.00 0.28 0.28 85 1016.5
20260505200126 12 269 0.0 3.2 0.00 0.28 0.28 84 1016.5
20260505200039 12 212 0.0 1.6 0.00 0.08 0.08 100 1016.8
20260505195401 12 269 0.0 3.2 0.00 0.28 0.28 84 1016.4
20260505194902 12 296 1.6 4.8 0.00 0.28 0.28 83 1016.4
20260505194542 12 336 3.2 3.2 0.00 0.08 0.08 100 1016.6
20260505194401 12 351 1.6 4.8 0.00 0.28 0.28 83 1016.4
20260505193902 12 331 1.6 4.8 0.00 0.28 0.28 83 1016.3
20260505193632 13 45 3.2 4.8 0.00 0.28 0.28 82 1016.3
20260505193057 12 316 1.6 3.2 0.00 0.08 0.08 100 1016.6
20260505192830 13 314 0.0 4.8 0.00 0.28 0.28 82 1016.3
20260505192331 13 303 1.6 6.4 0.00 0.28 0.28 82 1016.2
20260505191831 13 303 3.2 6.4 0.00 0.28 0.28 82 1016.3
20260505191540 13 321 3.2 4.8 0.00 0.08 0.08 100 1016.5
20260505191324 13 337 3.2 6.4 0.00 0.28 0.28 82 1016.3
20260505190818 13 343 3.2 6.4 0.00 0.28 0.28 81 1016.2
20260505190316 13 269 1.6 6.4 0.00 0.28 0.28 81 1016.2
20260505190040 13 309 0.0 6.4 0.00 0.08 0.08 80 1016.5
20260505185818 13 307 1.6 6.4 0.00 0.28 0.28 80 1016.2
20260505185316 13 331 3.2 6.4 0.00 0.28 0.28 79 1016.2
20260505185042 14 231 3.2 8.0 0.00 0.28 0.28 79 1016.1
20260505184540 13 9 3.2 8.0 0.00 0.08 0.08 98 1016.3
20260505184316 14 306 3.2 8.0 0.00 0.28 0.28 78 1016.1
20260505183817 14 314 3.2 6.4 0.00 0.28 0.28 78 1016.0
20260505183313 14 336 4.8 9.7 0.00 0.28 0.28 78 1016.0
20260505183040 14 314 4.8 6.4 0.00 0.08 0.08 76 1016.3
20260505182810 14 316 6.4 9.7 0.00 0.28 0.28 77 1016.0
20260505182310 14 300 4.8 14.5 0.00 0.28 0.28 77 1015.9
20260505181803 14 329 6.4 14.5 0.00 0.28 0.28 77 1016.0
20260505181540 14 323 3.2 8.0 0.00 0.08 0.08 76 1016.3
20260505181302 14 337 4.8 11.3 0.00 0.28 0.28 76 1016.0
20260505180802 15 1 6.4 14.5 0.00 0.28 0.28 76 1015.9
20260505180302 15 350 8.0 14.5 0.00 0.28 0.28 76 1016.0
20260505180040 14 26 4.8 12.9 0.00 0.08 0.08 97 1016.3
20260505175801 15 321 4.8 9.7 0.00 0.28 0.28 77 1015.9
20260505175305 15 309 4.8 8.0 0.00 0.28 0.28 77 1016.0
20260505174804 15 279 3.2 6.4 0.00 0.28 0.28 77 1016.1
20260505174533 15 34 3.2 8.0 0.00 0.08 0.08 97 1016.4
20260505174523 15 331 3.2 9.7 0.00 0.28 0.28 77 1016.1
20260505173802 15 341 6.4 9.7 0.00 0.28 0.28 77 1016.1
20260505173303 15 320 4.8 9.7 0.00 0.28 0.28 75 1016.1
20260505173035 15 317 4.8 6.4 0.00 0.08 0.08 75 1016.4
20260505172802 15 254 4.8 6.4 0.00 0.28 0.28 75 1016.1
20260505172305 15 309 4.8 8.0 0.00 0.28 0.28 75 1016.1
20260505172022 15 299 4.8 9.7 0.00 0.28 0.28 74 1016.1
20260505171538 15 316 4.8 12.9 0.00 0.08 0.08 73 1016.4
20260505171302 15 252 4.8 9.7 0.00 0.28 0.28 74 1016.1
20260505170802 15 293 6.4 9.7 0.00 0.28 0.28 72 1016.1
20260505170302 15 354 6.4 8.0 0.00 0.28 0.28 71 1016.0
20260505170039 15 323 3.2 6.4 0.00 0.08 0.08 91 1016.3
20260505165802 15 344 4.8 11.3 0.00 0.28 0.28 71 1016.0
20260505165305 15 310 4.8 16.1 0.00 0.28 0.28 72 1016.0
20260505164801 15 312 8.0 16.1 0.00 0.28 0.28 70 1016.0
20260505164540 16 317 6.4 14.5 0.00 0.08 0.08 90 1016.3
20260505164302 16 20 6.4 17.7 0.00 0.28 0.28 71 1015.9
20260505163801 16 351 6.4 17.7 0.00 0.28 0.28 72 1015.9
20260505163302 16 324 6.4 17.7 0.00 0.28 0.28 72 1015.8
20260505163040 16 342 9.7 14.5 0.00 0.08 0.08 92 1016.1
20260505162802 16 314 6.4 11.3 0.00 0.28 0.28 73 1015.8
20260505162302 16 320 6.4 11.3 0.00 0.28 0.28 74 1015.9
20260505161802 16 316 6.4 9.7 0.00 0.28 0.28 72 1015.9
20260505161535 15 269 6.4 12.9 0.00 0.08 0.08 70 1016.2
20260505161304 16 334 4.8 11.3 0.00 0.28 0.28 71 1015.9
20260505160801 16 305 4.8 11.3 0.00 0.28 0.28 71 1015.8
20260505160302 16 351 6.4 14.5 0.00 0.28 0.28 71 1015.9
20260505153302 16 258 6.4 11.3 0.00 0.28 0.28 71 1015.8
20260505153043 15 235 6.4 11.3 0.00 0.08 0.08 71 1016.1
20260505152802 16 306 6.4 14.5 0.00 0.28 0.28 73 1015.8
20260505152305 15 298 6.4 14.5 0.00 0.28 0.28 77 1015.9
20260505151801 15 331 3.2 14.5 0.00 0.28 0.28 77 1015.9
20260505151539 15 305 4.8 16.1 0.00 0.08 0.08 95 1016.2
20260505151302 15 241 6.4 14.5 0.00 0.28 0.28 78 1015.9
20260505150803 15 344 6.4 9.7 0.00 0.28 0.28 76 1015.9
20260505150302 15 276 6.4 14.5 0.00 0.28 0.28 76 1015.9
20260505140529 15 353 8.0 9.7 0.00 0.33 0.28 77 1015.9
20260505130302 13 241 3.2 8.0 0.00 0.33 0.28 85 1015.8
20260505125025 13 290 3.2 9.7 0.00 0.38 0.28 80 1015.7
20260505124540 14 344 3.2 9.7 0.00 0.30 0.08 79 1016.1
20260505124302 14 244 4.8 9.7 0.00 0.38 0.28 80 1015.8
20260505123803 14 251 8.0 9.7 0.00 0.41 0.28 86 1015.8
20260505123302 14 1 3.2 9.7 0.00 0.41 0.28 86 1015.6
20260505123048 13 303 8.0 11.3 0.00 0.30 0.08 98 1016.0
20260505122804 14 351 8.0 8.0 0.00 0.41 0.28 86 1015.6
20260505122305 14 281 3.2 6.4 0.00 0.41 0.28 86 1015.7
20260505122027 14 323 6.4 11.3 0.00 0.41 0.28 86 1015.8
20260505121536 13 306 4.8 12.9 0.00 0.30 0.08 100 1016.0
20260505121525 14 312 11.3 11.3 0.00 0.41 0.28 86 1015.7
20260505120802 -17 0.0 0.0 0.00 0.41 0.28 1015.7
20260505120303 -17 321 4.8 6.4 0.00 0.41 0.28 1015.8
20260505120048 13 282 3.2 6.4 0.00 0.30 0.08 100 1016.1
20260505115801 13 321 4.8 6.4 0.00 0.41 0.20 86 1015.8
20260505115304 13 8 3.2 9.7 0.00 0.41 0.20 86 1015.8
20260505114802 13 330 6.4 9.7 0.00 0.41 0.20 86 1015.8
20260505114538 13 347 3.2 8.0 0.00 0.36 0.08 100 1016.1
20260505114302 13 344 3.2 8.0 0.00 0.41 0.20 86 1015.9
20260505114028 13 320 4.8 8.0 0.03 0.41 0.20 87 1015.7
20260505113302 13 296 4.8 9.7 0.03 0.41 0.20 87 1015.8
20260505113038 13 323 3.2 4.8 0.00 0.36 0.08 100 1016.0
20260505112802 13 344 4.8 9.7 0.03 0.41 0.20 88 1015.7
20260505112304 13 178 3.2 8.0 0.03 0.41 0.20 87 1015.7
20260505112247 13 323 6.4 9.7 0.05 0.41 0.20 89 1015.6
20260505111536 13 17 4.8 8.0 0.00 0.36 0.08 100 1016.0
20260505111303 13 350 4.8 9.7 0.05 0.43 0.20 91 1015.6
20260505110802 -17 6 6.4 6.4 0.05 0.43 0.20 1015.6
20260505110303 -17 327 6.4 6.4 0.05 0.43 0.28 1015.7
20260505101802 -17 275 1.6 1.6 0.10 0.38 0.13 1015.7
20260505101539 11 218 1.6 3.2 0.00 0.36 0.08 100 1016.0
20260505101303 -17 0.0 0.0 0.10 0.38 0.13 1015.7
20260505100802 -17 0.0 0.0 0.10 0.38 0.13 1015.6
20260505100303 -17 0.0 0.0 0.10 0.38 0.13 1015.6
20260505100035 11 309 1.6 4.8 0.00 0.36 0.08 100 1015.9
20260505095802 -17 0.0 0.0 0.10 0.38 0.13 1015.6
20260505095304 -17 0.0 0.0 0.10 0.38 0.13 1015.6
20260505094801 -17 0.0 0.0 0.10 0.38 0.13 1015.5
20260505094536 11 196 0.0 3.2 0.00 0.36 0.08 100 1015.8
20260505094302 12 269 3.2 4.8 0.10 0.38 0.13 94 1015.5
20260505094024 12 269 3.2 4.8 0.13 0.38 0.13 94 1015.6
20260505093302 -17 269 1.6 3.2 0.03 0.28 0.10 1015.5
20260505093043 11 239 1.6 4.8 0.00 0.36 0.08 100 1015.8
20260505092802 12 79 3.2 3.2 0.05 0.28 0.10 94 1015.5
20260505092305 12 296 1.6 3.2 0.05 0.28 0.10 94 1015.5
20260505091802 13 234 1.6 4.8 0.03 0.28 0.10 95 1015.5
20260505091537 11 232 1.6 3.2 0.00 0.36 0.08 100 1015.8
20260505091302 12 178 1.6 6.4 0.03 0.28 0.10 95 1015.4
20260505090802 12 234 1.6 6.4 0.03 0.28 0.10 95 1015.3
20260505090302 12 89 3.2 4.8 0.03 0.28 0.10 95 1015.4
20260505090045 11 1.6 3.2 0.00 0.36 0.08 100 1015.6
20260505085802 12 149 1.6 3.2 0.03 0.28 0.05 96 1015.4
20260505085304 11 124 3.2 3.2 0.03 0.28 0.05 96 1015.4
20260505084801 -17 142 1.6 3.2 0.05 0.28 0.05 1015.5
20260505084550 8 0 0.0 4.8 0.00 0.36 0.08 100 1015.8
20260505084302 11 140 3.2 3.2 0.05 0.28 0.05 95 1015.5
20260505083802 11 223 3.2 4.8 0.05 0.25 0.05 95 1015.5
20260505083302 10 296 1.6 4.8 0.05 0.25 0.05 95 1015.5
20260505083053 8 0 3.2 4.8 0.00 0.36 0.08 100 1015.8
20260505082802 10 168 3.2 3.2 0.05 0.25 0.00 95 1015.5
20260505082744 -17 178 1.6 1.6 0.05 0.25 0.00 1015.5
20260505081802 -17 178 1.6 1.6 0.05 0.25 0.00 1015.4
20260505081551 8 160 1.6 3.2 0.00 0.36 0.08 100 1015.8
20260505081301 10 45 0.0 0.0 0.05 0.25 0.00 95 1015.5
20260505080802 10 45 0.0 0.0 0.05 0.25 0.00 95 1015.6
20260505080301 -17 0.0 0.0 0.05 0.25 0.00 1015.5
20260505080052 8 141 0.0 3.2 0.00 0.36 0.08 100 1015.8
20260505080026 -17 148 3.2 3.2 0.05 0.25 0.00 1015.5
20260505075525 -17 148 3.2 3.2 0.05 0.25 0.00 1015.6
20260505074803 10 135 1.6 1.6 0.00 0.20 0.05 94 1015.6
20260505074534 8 169 1.6 1.6 0.00 0.36 0.08 100 1015.8
20260505074302 10 117 1.6 1.6 0.00 0.20 0.05 94 1015.5
20260505073803 -17 109 1.6 1.6 0.00 0.20 0.05 1015.5
20260505073301 10 269 0.0 1.6 0.00 0.20 0.05 94 1015.4
20260505073049 8 0 1.6 3.2 0.00 0.36 0.08 100 1015.8
20260505072804 10 152 1.6 1.6 0.00 0.20 0.05 94 1015.5
20260505072302 10 157 1.6 1.6 0.03 0.20 0.05 94 1015.6
20260505071803 -17 0.0 0.0 0.03 0.20 0.05 1015.6
20260505071544 8 165 1.6 3.2 0.08 0.36 0.08 100 1015.8
20260505071303 -17 0.0 0.0 0.03 0.20 0.05 1015.5
20260505070803 -17 0.0 0.0 0.03 0.20 0.05 1015.3
20260505070526 -17 0.0 0.0 0.03 0.20 0.05 1015.2
20260505070042 8 0 0.0 3.2 0.08 0.36 0.08 100 1015.5
20260505065803 -17 0.0 0.0 0.03 0.20 0.03 1015.2
20260505065303 -17 0.0 0.0 0.05 0.20 0.03 1015.2
20260505064803 9 178 1.6 1.6 0.05 0.20 0.03 94 1015.2
20260505064536 8 0 0.0 1.6 0.08 0.36 0.08 100 1015.6
20260505064302 9 178 1.6 1.6 0.05 0.20 0.03 94 1015.3
20260505063803 9 269 0.0 0.0 0.05 0.20 0.03 94 1015.4
20260505063301 9 32 0.0 0.0 0.03 0.20 0.00 94 1015.3
20260505063039 8 178 1.6 3.2 0.08 0.36 0.08 100 1015.5
20260505063022 -17 135 0.0 3.2 0.03 0.20 0.00 1015.2
20260505062304 9 178 3.2 3.2 0.03 0.18 0.00 94 1015.2
20260505061803 9 269 3.2 3.2 0.03 0.18 0.00 94 1015.1
20260505061539 8 209 3.2 3.2 0.00 0.28 0.00 100 1015.5
20260505061302 -17 193 1.6 1.6 0.00 0.18 0.00 1015.1
20260505060803 -17 193 1.6 1.6 0.00 0.18 0.00 1015.1
20260505060302 -17 142 3.2 3.2 0.00 0.18 0.00 1015.2
20260505060055 8 165 1.6 3.2 0.00 0.28 0.00 100 1015.4
20260505055804 -17 142 3.2 3.2 0.00 0.18 0.00 1015.1
20260505055303 8 223 1.6 1.6 0.00 0.18 0.00 94 1015.2
20260505054804 8 223 1.6 1.6 0.00 0.18 0.00 94 1015.1
20260505054537 8 0 0.0 1.6 0.00 0.28 0.00 100 1015.5
20260505054302 -17 45 0.0 1.6 0.00 0.18 0.00 1015.2
20260505054251 -17 269 0.0 0.0 0.00 0.18 0.00 1015.1
20260505053258 8 178 0.0 0.0 0.00 0.18 0.00 94 1015.1
20260505053038 8 0 0.0 3.2 0.00 0.28 0.00 100 1015.4
20260505052751 8 178 0.0 0.0 0.00 0.18 0.00 94 1015.0
20260505052251 8 223 0.0 1.6 0.00 0.18 0.00 93 1015.0
20260505051751 8 178 1.6 1.6 0.00 0.18 0.00 93 1015.1
20260505051539 11 158 1.6 3.2 0.00 0.28 0.00 100 1015.3
20260505051244 -17 145 1.6 1.6 0.00 0.18 0.00 1015.0
20260505050744 -17 171 1.6 3.2 0.00 0.18 0.00 1015.0
20260505050458 -17 171 1.6 3.2 0.00 0.18 0.00 1014.9
20260505041701 -17 157 4.8 4.8 0.00 0.18 0.00 1015.0
20260505041548 11 0 1.6 4.8 0.00 0.28 0.00 100 1015.4
20260505041203 -17 0.0 0.0 0.00 0.18 0.00 1015.1
20260505040656 -17 0.0 0.0 0.00 0.18 0.00 1015.1
20260505040150 -17 0.0 0.0 0.00 0.18 0.00 1015.2
20260505040034 11 178 1.6 4.8 0.00 0.28 0.00 100 1015.5
20260505035643 -17 0.0 0.0 0.00 0.18 0.00 1015.2
20260505035131 -17 0.0 0.0 0.00 0.18 0.00 1015.3
20260505034629 -17 0.0 0.0 0.00 0.18 0.00 1015.3
20260505034539 11 151 1.6 6.4 0.00 0.28 0.00 100 1015.5
20260505034123 -17 154 4.8 4.8 0.00 0.18 0.00 1015.2
20260505033622 -17 154 4.8 4.8 0.00 0.18 0.00 1015.2
20260505033115 -17 0.0 0.0 0.00 0.18 0.00 1015.2
20260505033035 11 158 3.2 6.4 0.00 0.28 0.00 100 1015.5
20260505032604 -17 178 3.2 3.2 0.00 0.18 0.00 1015.2
20260505032548 -17 178 3.2 3.2 0.00 0.18 0.00 1015.3
20260505031603 -17 148 3.2 3.2 0.00 0.18 0.00 1015.2
20260505031536 11 124 3.2 3.2 0.00 0.28 0.00 100 1015.6
20260505031102 -17 148 3.2 3.2 0.00 0.18 0.00 1015.4
20260505030604 -17 0.0 0.0 0.00 0.18 0.00 1015.3
20260505030046 11 221 1.6 3.2 0.00 0.28 0.00 100 1015.7
20260505025604 -17 0.0 0.0 0.00 0.18 0.00 1015.3
20260505025102 -17 0.0 0.0 0.00 0.18 0.00 1015.4
20260505024603 -17 0.0 0.0 0.00 0.18 0.00 1015.4
20260505024540 11 142 1.6 9.7 0.00 0.28 0.00 100 1015.7
20260505024102 8 157 4.8 4.8 0.00 0.18 0.00 93 1015.3
20260505023604 8 157 4.8 4.8 0.00 0.18 0.00 93 1015.3
20260505023102 -17 0.0 0.0 0.00 0.18 0.00 1015.4
20260505023038 11 153 1.6 4.8 0.00 0.28 0.00 100 1015.7
20260505022600 -17 213 1.6 1.6 0.00 0.18 0.00 1015.3
20260505022318 8 213 1.6 3.2 0.00 0.18 0.00 93 1015.3
20260505021553 8 159 3.2 3.2 0.00 0.18 0.00 93 1015.4
20260505021538 11 178 1.6 6.4 0.00 0.28 0.00 100 1015.7
20260505021052 8 152 1.6 3.2 0.00 0.18 0.00 93 1015.4
20260505020813 -17 171 3.2 4.8 0.00 0.18 0.00 1015.4
20260505020057 8 152 4.8 4.8 0.00 0.18 0.00 93 1015.5
20260505020040 11 162 1.6 6.4 0.00 0.28 0.00 100 1015.8
20260505015553 8 161 1.6 4.8 0.00 0.18 0.00 93 1015.5
20260505015052 8 161 4.8 4.8 0.00 0.18 0.00 93 1015.6
20260505015021 8 161 1.6 4.8 0.00 0.18 0.00 93 1015.6
20260505015016 8 161 3.2 4.8 0.00 0.18 0.00 93 1015.6
20260505014559 11 0 1.6 4.8 0.00 0.28 0.00 100 1015.9
20260505013553 8 157 1.6 3.2 0.00 0.18 0.00 93 1015.5
20260505013052 8 157 1.6 3.2 0.00 0.18 0.00 93 1015.7
20260505013047 11 178 0.0 3.2 0.00 0.28 0.00 100 1016.0
20260505012552 8 178 1.6 1.6 0.00 0.18 0.00 93 1015.7
20260505012057 8 206 0.0 3.2 0.00 0.18 0.00 93 1015.7
20260505011817 8 206 3.2 4.8 0.00 0.18 0.00 93 1015.7
20260505011540 11 162 3.2 4.8 0.00 0.28 0.00 100 1016.1
20260505011051 8 206 1.6 4.8 0.00 0.18 0.00 93 1015.7
20260505010552 8 178 1.6 3.2 0.00 0.18 0.00 93 1015.7
20260505010051 8 178 1.6 3.2 0.00 0.18 0.00 94 1015.7
20260505010041 11 178 0.0 3.2 0.00 0.28 0.00 100 1016.1
20260505005552 8 223 1.6 3.2 0.00 0.18 0.00 94 1015.8
20260505005051 8 223 1.6 4.8 0.00 0.18 0.00 93 1015.8
20260505004602 8 269 1.6 4.8 0.00 0.18 0.00 93 1015.9
20260505004544 11 178 1.6 4.8 0.00 0.28 0.00 100 1016.3
20260505004050 8 178 3.2 6.4 0.00 0.18 0.00 93 1015.9
20260505003812 8 171 3.2 6.4 0.00 0.18 0.00 93 1016.0
20260505003051 11 0 0.0 1.6 0.00 0.28 0.00 100 1016.3
20260505002552 9 223 0.0 4.8 0.00 0.18 0.00 93 1016.0